Tracking 28915 objects as of 29-May-2024
HD Live streaming from Space Station
objects crossing your sky now

GHOST-2

Track GHOST-2 now!
10-day predictions


NORAD ID: 56197
Int'l Code: 2023-054V
Perigee: 470.5 km
Apogee: 481.2 km
Inclination: 97.4 °
Period: 94.0 minutes
Semi major axis: 6846 km
RCS: Unknown
Launch date: April 15, 2023
Source: United States (US)
Launch site: AIR FORCE WESTERN TEST RANGE (AFWTR)
Your satellite tracking list
Your tracking list is empty




NASA's NSSDC Master Catalog

Two Line Element Set (TLE):
1 56197U 23054V   24150.25884336  .00011141  00000-0  35827-3 0  9999
2 56197  97.3647  46.4716 0007803 216.6856 143.3852 15.32389799 63142
Source of the keplerian elements: AFSPC